Location: Cartersville (historical)
(42.9944°N, 93.0869°W)
Time: 14:46:28
(UTC+00:00)

ARIANE 6 FM1 Upper Stage - Pass Details

Date: 11 November 2025
Orbit: 522 x 611 km, 62.0° (Epoch: 10 December)

Event Time Altitude Azimuth Distance (km) Brightness Sun altitude
Rises 00:09:46 0° 261° (W) 2,672 8.1 -14.2°
Reaches altitude 10° 00:12:35 10° 281° (WNW) 1,774 6.3 -14.7°
Maximum altitude 00:15:17 17° 324° (NW) 1,367 4.9 -15.2°
Drops below altitude 10° 00:17:58 10° 7° (N) 1,767 5.0 -15.7°
Enters shadow 00:18:51 - 16° (NNE) 2,016 5.2 -15.8°
